Tracking 31027 objects as of 19-Jul-2025
HD Live streaming from Space Station
objects crossing your sky now

HUYGENS

Track HUYGENS now!
10-day predictions


NORAD ID: 55093
Int'l Code: 2023-001CN
Perigee: 467.4 km
Apogee: 482.6 km
Inclination: 97.4 °
Period: 94.0 minutes
Semi major axis: 6845 km
RCS: Unknown
Launch date: January 3, 2023
Source: Norway (NOR)
Launch site: AIR FORCE EASTERN TEST RANGE (AFETR)
Your satellite tracking list
SKOLTECH-B2
Track 1 satellite(s)




NASA's NSSDC Master Catalog

Two Line Element Set (TLE):
1 55093U 23001CN  25199.89234457  .00006486  00000-0  20775-3 0  9994
2 55093  97.3724 262.5106 0011072 190.9118 169.1885 15.32665698141193
Source of the keplerian elements: AFSPC